Home > Time Zones > World Clock > Weather > Iran > Rasht > Past weeks

Flag for Iran Weather past 2 weeks in Rasht, Iran

Now
59 °F

Clear.


Feels Like: 59 °F
Forecast: 53 / 76 °F
Wind: No wind

Location: Rasht Airport

Current Time: Apr 20, 2015 at 2:00:40 AM

Latest Report: Apr 19, 2015 at 11:30 PM


Visibility: 10 mi

Pressure: 29.71 "Hg

Humidity: 82%

Dew point: 54 °F

Location of RashtLocation

Historic Weather in Rasht — Graph

°F

Rasht temperature yesterday

Maximum temperature yesterday: 77 °F (at 5:30 PM)
Minimum temperature yesterday: 52 °F (at 6:30 AM)
Average temperature yesterday: 67 °F

Past Weeks' High & Low Weather Summary

 TemperatureHumidityPressure
High77 °F (Apr 19, 5:30 PM)100% (Apr 6, 7:30 AM)30.30 "Hg (Apr 6, 7:30 AM)
Low43 °F (Apr 6, 6:30 AM)47% (Apr 19, 5:30 PM)29.71 "Hg (Apr 10, 6:30 AM)
Average56 °F83%30.02 "Hg
* Reported Apr 5 6:30 AM — Apr 19 11:30 PM, Rasht, Weather by CustomWeather, © 2015

Note: Actual official high and low records may vary slightly from our data, if they occured in-between our weather recording intervals... More about our weather records

Advertising

Rasht weather history for previous 24 hours

 ConditionsComfort  
Time TempWeatherWind HumidityBarometerVisibility
11:30 PM
Sun, Apr 19
59 °FClear.No wind82%29.71 "Hg10 mi
8:00 PM66 °FSunny.5 mph68%29.71 "Hg10 mi
7:30 PM70 °FSunny.5 mph60%29.71 "Hg10 mi
7:00 PM72 °FSunny.7 mph57%29.71 "Hg10 mi
6:30 PM73 °FSunny.7 mph53%29.71 "Hg10 mi
6:00 PM75 °FSunny.7 mphN/AN/A10 mi
5:30 PM77 °FSunny.5 mph47%29.71 "Hg10 mi
5:00 PM75 °FSunny.5 mph50%29.71 "Hg10 mi
4:30 PM75 °FSunny.5 mph50%29.74 "Hg10 mi
4:00 PM75 °FSunny.5 mph57%29.74 "Hg10 mi
3:30 PM75 °FSunny.No wind57%29.74 "Hg10 mi
3:00 PM73 °FClear.2 mph57%29.77 "Hg5 mi
2:30 PM72 °FClear.2 mph61%29.77 "Hg5 mi
2:00 PM68 °FPassing clouds.7 mph78%29.80 "Hg4 mi
1:30 PM66 °FPassing clouds.9 mph83%29.80 "Hg4 mi
1:00 PM66 °FPassing clouds.9 mph83%29.80 "Hg4 mi
12:30 PM68 °FPassing clouds.12 mph78%29.80 "Hg4 mi
12:00 PM66 °FClear.12 mph83%29.80 "Hg4 mi
11:30 AM70 °FClear.12 mph73%29.80 "Hg4 mi
11:00 AM70 °FSandstorm.12 mph73%29.74 "Hg4 mi
10:30 AM73 °FClear.No wind61%29.77 "Hg4 mi
10:00 AM70 °FFog.2 mph73%29.77 "Hg3 mi
9:30 AM66 °FFog.2 mph83%29.77 "Hg2 mi
9:00 AM57 °FFog.2 mph100%29.77 "Hg2 mi
8:30 AM57 °FFog.5 mph100%29.77 "Hg2 mi
8:00 AM52 °FFog.No wind100%29.77 "Hg1 mi
7:30 AM52 °FFog.No wind100%29.77 "Hg1 mi
7:00 AM52 °FFog.No wind100%29.74 "Hg1 mi
6:30 AM52 °FFog.No wind100%29.74 "Hg1 mi
Weather by CustomWeather, © 2015

See weather overviewHow to use our weather pages